Kazan, Russia

2:22 PM MSK on December 06, 2019 (GMT +0300)
Kazan

Weather History for UWKD - October, 2019

Change the Weather History Date:

Friday, October 4, 2019

  Actual Average (WUND) Record (WUND)
Temperature  
Mean Temperature 56 °F -  
Max Temperature 64 °F - - (-1)
Min Temperature 48 °F - - (-1)
Degree Days  
Heating Degree Days 9    
Growing Degree Days 6 (Base 50)    
Moisture  
Dew Point 50 °F    
Average Humidity 79    
Maximum Humidity 99    
Minimum Humidity 56    
Precipitation  
Precipitation 0.00 in - - ()
Sea Level Pressure  
Sea Level Pressure 29.95 in    
Wind  
Wind Speed 9 mph ()    
Max Wind Speed 18 mph    
Max Gust Speed 29 mph    
Visibility 5.9 miles    
Events Fog    
Averages and records for this station are not official NWS values.
T = Trace of Precipitation, MM = Missing Value Source: Averaged Metar Reports

Daily Weather History Graph

Daily Weather History Graph

Search for Another Location

Airport or City:

Astronomy

Oct. 04, 2019 Rise Set
Actual Time 5:50 AM MSK 5:11 PM MSK
Civil Twilight 5:13 AM MSK 5:48 PM MSK
Nautical Twilight 4:30 AM MSK 6:31 PM MSK
Astronomical Twilight 3:46 AM MSK 7:15 PM MSK
Moon 12:58 PM MSK (10/4) 8:21 PM MSK (10/4)
Length of Visible Light 12h 34m
Length of Day
11h 21m
Waxing Crescent, 37% of the Moon is Illuminated
Oct 4
Waxing Crescent
Oct 5
First Quarter
Oct 14
Full
Oct 21
Last Quarter
Oct 28
New

Hourly Weather History & Observations

Time (MSK) Temp. Dew Point Humidity Pressure Visibility Wind Dir Wind Speed Gust Speed Precip Events Conditions
12:00 AM 53 °F 49 °F 80% 30.03 in 6 mi ESE 2.2 mph - -   Clear
12:00 AM 51.8 °F 46.4 °F 82% 30.01 in - SSE 8.9 mph - N/A   Clear
12:30 AM 51.8 °F 46.4 °F 82% 30.01 in - SE 8.9 mph - N/A   Clear
1:00 AM 48.2 °F 46.4 °F 93% 30.01 in - SE 8.9 mph - N/A   Clear
1:30 AM 51.8 °F 46.4 °F 82% 30.01 in - South 11.2 mph - N/A   Clear
2:00 AM 50.0 °F 46.4 °F 87% 30.01 in - South 11.2 mph - N/A   Clear
2:30 AM 50.0 °F 48.2 °F 94% 30.01 in - South 8.9 mph - N/A   Clear
3:00 AM 50.0 °F 46.4 °F 87% 30.01 in - South 8.9 mph - N/A   Clear
3:30 AM 50.0 °F 48.2 °F 94% 30.01 in - SSE 11.2 mph - N/A   Clear
4:00 AM 50.0 °F 48.2 °F 94% 30.01 in - South 13.4 mph - N/A   Clear
4:30 AM 50.0 °F 46.4 °F 87% 30.01 in 5.0 mi SSE 11.2 mph - N/A   Unknown
5:00 AM 50.0 °F 48.2 °F 94% 29.98 in 5.6 mi SSE 8.9 mph - N/A   Unknown
5:30 AM 50.0 °F 46.4 °F 87% 29.98 in 3.1 mi SSE 8.9 mph - N/A Fog Fog
6:00 AM 51 °F 51 °F 99% 30.00 in 6 mi SSE 4.5 mph - -  
6:00 AM 50.0 °F 48.2 °F 94% 29.98 in - SSE 11.2 mph - N/A   Scattered Clouds
6:30 AM 50.0 °F 48.2 °F 94% 29.98 in 4.3 mi SSE 8.9 mph - N/A   Scattered Clouds
7:00 AM 50.0 °F 48.2 °F 94% 29.98 in 4.3 mi SSE 8.9 mph - N/A   Scattered Clouds
7:30 AM 51.8 °F 50.0 °F 94% 30.01 in 5.0 mi SSE 8.9 mph - N/A   Scattered Clouds
8:00 AM 53.6 °F 50.0 °F 88% 29.98 in 5.6 mi SSE 11.2 mph - N/A   Scattered Clouds
8:30 AM 53.6 °F 50.0 °F 88% 29.98 in 6.2 mi SSE 11.2 mph - N/A   Scattered Clouds
9:00 AM 53.6 °F 50.0 °F 88% 29.98 in 6.2 mi SSE 11.2 mph - N/A   Mostly Cloudy
9:30 AM 53.6 °F 51.8 °F 94% 29.98 in 6.2 mi SSE 8.9 mph - N/A   Overcast
10:00 AM 57.2 °F 51.8 °F 82% 29.98 in 6.2 mi South 13.4 mph - N/A   Mostly Cloudy
10:30 AM 60.8 °F 51.8 °F 72% 29.98 in 6.2 mi South 13.4 mph - N/A   Scattered Clouds
11:00 AM 62.6 °F 51.8 °F 68% 29.95 in 6.2 mi South 15.7 mph - N/A   Partly Cloudy
11:30 AM 62.6 °F 50.0 °F 63% 29.95 in 6.2 mi South 15.7 mph - N/A   Partly Cloudy
12:00 PM 63 °F 51 °F 56% 29.96 in 6 mi South 6.7 mph - -   Scattered Clouds
12:00 PM 62.6 °F 50.0 °F 63% 29.95 in - South 13.4 mph 24.6 mph N/A   Clear
12:30 PM 62.6 °F 50.0 °F 63% 29.95 in 6.2 mi SSW 15.7 mph 26.8 mph N/A   Partly Cloudy
1:00 PM 64.4 °F 50.0 °F 59% 29.95 in 6.2 mi SSW 15.7 mph 26.8 mph N/A   Partly Cloudy
1:30 PM 64.4 °F 50.0 °F 59% 29.95 in 6.2 mi SSW 15.7 mph 26.8 mph N/A   Scattered Clouds
2:00 PM 62.6 °F 50.0 °F 63% 29.95 in 6.2 mi SSW 15.7 mph 26.8 mph N/A   Scattered Clouds
2:30 PM 62.6 °F 50.0 °F 63% 29.92 in 6.2 mi South 17.9 mph 29.1 mph N/A   Scattered Clouds
3:00 PM 62 °F 51 °F 59% 29.94 in 6 mi SSE 4.5 mph - -   Mostly Cloudy
3:30 PM 60.8 °F 50.0 °F 68% 29.92 in 6.2 mi South 15.7 mph 26.8 mph N/A   Scattered Clouds
4:00 PM 59.0 °F 50.0 °F 72% 29.92 in 6.2 mi South 11.2 mph 22.4 mph N/A   Partly Cloudy
5:30 PM 55.4 °F 50.0 °F 82% 29.92 in - South 11.2 mph - N/A   Clear
6:00 PM 56 °F 51 °F 79% 29.93 in 6 mi SE 8.9 mph - -  
6:00 PM 55.4 °F 50.0 °F 82% 29.92 in 6.2 mi SSE 8.9 mph - N/A   Overcast
6:30 PM 55.4 °F 51.8 °F 88% 29.92 in 6.2 mi South 6.7 mph - N/A   Overcast
7:00 PM 59.0 °F 51.8 °F 77% 29.89 in 6.2 mi South 13.4 mph - N/A   Overcast
7:30 PM 59.0 °F 51.8 °F 77% 29.89 in 6.2 mi South 13.4 mph - N/A   Mostly Cloudy
8:00 PM 60.8 °F 51.8 °F 72% 29.89 in 6.2 mi South 11.2 mph 22.4 mph N/A   Mostly Cloudy
8:30 PM 59.0 °F 51.8 °F 77% 29.86 in 6.2 mi South 15.7 mph 26.8 mph N/A   Mostly Cloudy
9:00 PM 59 °F 54 °F 77% 29.89 in 6 mi South 2.2 mph - -   Mostly Cloudy
9:30 PM 59.0 °F 51.8 °F 77% 29.86 in 6.2 mi South 13.4 mph - N/A   Scattered Clouds
10:30 PM 59.0 °F 51.8 °F 77% 29.86 in 6.2 mi South 13.4 mph - N/A   Mostly Cloudy
11:00 PM 59.0 °F 50.0 °F 72% 29.86 in - South 13.4 mph - N/A   Clear
11:30 PM 60.8 °F 48.2 °F 63% 29.86 in 6.2 mi South 8.9 mph 20.1 mph N/A   Mostly Cloudy